User: anonymous   Login
Location: Trois-Rivi�res
(46.3500°N, 72.5500°W)
Time: 17:54:27
(UTC-04:00)
Language:

Cosmos 1975 - Orbit

View from above orbital plane
View from above orbital plane
View from above satellite
View from above satellite

Ground track
Ground track

The orbit data is extracted from the following two-line orbital elements,

1 19573U 88093A   16125.75184958  .00000605  00000-0  42103-4 0  9990
2 19573  82.5228  20.4909 0013019 246.6471 113.3386 15.03656059498424
Epoch (UTC): 04 May 2016 18:02:39
Eccentricity: 0.0013019
inclination: 82.5228°
perigee height: 546 km
apogee height: 564 km
right ascension of ascending node: 20.4909°
argument of perigee: 246.6471°
revolutions per day: 15.03656059
mean anomaly at epoch: 113.3386°
orbit number at epoch: 49842

The dashed part of the orbit path shows where the satellite is in the earth's shadow,  

DLR